Detroit Lakes, MN

4:21 PM CDT on August 28, 2016 (GMT -0500)
Detroit Lakes

Weather History for KDTL - December, 2012

Change the Weather History Date:

Saturday, December 1, 2012

  Actual Average Record
Temperature  
Mean Temperature 36 °F -  
Max Temperature 41 °F 26 °F 57 °F (1962)
Min Temperature 32 °F 8 °F -25 °F (1978)
Degree Days  
Heating Degree Days 28    
Moisture  
Dew Point 33 °F    
Average Humidity 93    
Maximum Humidity 100    
Minimum Humidity 76    
Precipitation  
Precipitation 0.00 in - - ()
Sea Level Pressure  
Sea Level Pressure 29.76 in    
Wind  
Wind Speed 13 mph (SW)    
Max Wind Speed 21 mph    
Max Gust Speed 29 mph    
Visibility 3 miles    
Events Fog    
Averages and records for this station are not official NWS values.
T = Trace of Precipitation, MM = Missing Value Source: NWS Daily Summary

Daily Weather History Graph

Daily Weather History Graph

Search for Another Location

Airport or City:

Trip Planner

Search our weather history database for the weather conditions in past years. The results will help you decide how hot, cold, wet, or windy it might be!

Date:

Astronomy

Dec. 01, 2012 Rise Set
Actual Time 7:48 AM CST 4:36 PM CST
Civil Twilight 7:14 AM CST 5:11 PM CST
Nautical Twilight 6:35 AM CST 5:49 PM CST
Astronomical Twilight 5:59 AM CST 6:25 PM CST
Moon 7:31 PM CST (12/1) 9:59 AM CST (12/1)
Length of Visible Light 9h 57m
Length of Day
8h 48m
Waning Gibbous, 91% of the Moon is Illuminated
Dec 1
Waning Gibbous
Dec 6
Last Quarter
Dec 13
New
Dec 19
First Quarter
Dec 28
Full

Hourly Weather History & Observations

Time (CST) Temp. Windchill Dew Point Humidity Pressure Visibility Wind Dir Wind Speed Gust Speed Precip Events Conditions
12:13 AM 32.0 °F 20.8 °F 32.0 °F 100% 29.87 in 2.5 mi SSE 17.3 mph 25.3 mph N/A   Overcast
12:33 AM 32.0 °F 20.5 °F 32.0 °F 100% 29.84 in 3.0 mi SSE 18.4 mph 25.3 mph N/A   Overcast
12:52 AM 32.0 °F 19.8 °F 32.0 °F 100% 29.83 in 3.0 mi SSE 20.7 mph 26.5 mph N/A   Overcast
1:13 AM 33.8 °F 22.5 °F 32.0 °F 93% 29.82 in 4.0 mi SSE 19.6 mph 28.8 mph N/A   Overcast
1:33 AM 33.8 °F 22.5 °F 32.0 °F 93% 29.81 in 4.0 mi SSE 19.6 mph 25.3 mph N/A   Overcast
1:52 AM 33.8 °F 22.8 °F 32.0 °F 93% 29.80 in 4.0 mi SSE 18.4 mph 27.6 mph N/A   Overcast
2:13 AM 33.8 °F 23.5 °F 32.0 °F 93% 29.80 in 4.0 mi SSE 16.1 mph 24.2 mph N/A   Overcast
3:33 AM 33.8 °F 23.5 °F 33.8 °F 100% 29.76 in 4.0 mi SSE 16.1 mph - N/A   Overcast
3:52 AM 33.8 °F 23.9 °F 33.8 °F 100% 29.74 in 4.0 mi SSE 15.0 mph - N/A   Overcast
4:13 AM 33.8 °F 23.9 °F 33.8 °F 100% 29.74 in 3.0 mi SSE 15.0 mph 23.0 mph N/A   Overcast
4:33 AM 33.8 °F 23.2 °F 33.8 °F 100% 29.73 in 3.0 mi SSE 17.3 mph 24.2 mph N/A   Overcast
4:52 AM 33.8 °F 22.8 °F 33.8 °F 100% 29.72 in 4.0 mi SSE 18.4 mph 24.2 mph N/A   Overcast
5:13 AM 33.8 °F 22.5 °F 33.8 °F 100% 29.70 in 4.0 mi SSE 19.6 mph 26.5 mph N/A   Overcast
6:13 AM 35.6 °F 26.2 °F 33.8 °F 93% 29.70 in 3.0 mi South 15.0 mph 20.7 mph N/A   Overcast
6:33 AM 35.6 °F 26.2 °F 33.8 °F 93% 29.69 in 3.0 mi SSE 15.0 mph 20.7 mph N/A   Overcast
7:13 AM 35.6 °F 28.0 °F 33.8 °F 93% 29.70 in 3.0 mi South 10.4 mph - N/A   Overcast
7:33 AM 35.6 °F 28.0 °F 33.8 °F 93% 29.71 in 3.0 mi SSE 10.4 mph - N/A   Overcast
7:52 AM 35.6 °F 27.5 °F 33.8 °F 93% 29.70 in 3.0 mi SSE 11.5 mph - N/A   Overcast
8:13 AM 35.6 °F 28.6 °F 33.8 °F 93% 29.71 in 2.0 mi SSE 9.2 mph - N/A   Mist
8:33 AM 35.6 °F 29.2 °F 33.8 °F 93% 29.71 in 2.0 mi SSE 8.1 mph - N/A   Mist
9:13 AM 35.6 °F 29.9 °F 33.8 °F 93% 29.71 in 1.8 mi SSE 6.9 mph - N/A   Mist
9:33 AM 35.6 °F 30.7 °F 33.8 °F 93% 29.71 in 2.0 mi SSE 5.8 mph - N/A   Mist
9:52 AM 35.6 °F 30.7 °F 33.8 °F 93% 29.71 in 2.0 mi South 5.8 mph - N/A   Mist
10:13 AM 35.6 °F 31.7 °F 33.8 °F 93% 29.71 in 2.5 mi South 4.6 mph - N/A   Mist
10:33 AM 35.6 °F 29.2 °F 33.8 °F 93% 29.71 in 2.5 mi SSE 8.1 mph - N/A   Mist
11:13 AM 37.4 °F 31.4 °F 33.8 °F 87% 29.70 in 3.0 mi South 8.1 mph - N/A   Mist
11:33 AM 39.2 °F 34.2 °F 35.6 °F 87% 29.70 in 4.0 mi South 6.9 mph - N/A   Clear
11:53 AM 39.2 °F 33.6 °F 35.6 °F 87% 29.69 in 5.0 mi SW 8.1 mph - N/A   Scattered Clouds
12:13 PM 39.2 °F 33.6 °F 33.8 °F 81% 29.70 in 5.0 mi SW 8.1 mph - N/A   Haze
12:33 PM 39.2 °F 33.6 °F 33.8 °F 81% 29.69 in 5.0 mi WSW 8.1 mph - N/A   Haze
12:53 PM 41.0 °F 37.1 °F 33.8 °F 76% 29.69 in 5.0 mi West 5.8 mph - N/A   Haze
1:13 PM 41.0 °F 36.4 °F 33.8 °F 76% 29.69 in 5.0 mi West 6.9 mph - N/A   Haze
1:33 PM 41.0 °F 36.4 °F 33.8 °F 76% 29.69 in 5.0 mi West 6.9 mph - N/A   Haze
1:53 PM 41.0 °F 37.1 °F 33.8 °F 76% 29.70 in 5.0 mi WSW 5.8 mph - N/A   Haze
2:13 PM 41.0 °F 37.1 °F 33.8 °F 76% 29.70 in 7.0 mi West 5.8 mph - N/A   Clear
2:33 PM 41.0 °F 37.1 °F 33.8 °F 76% 29.71 in 7.0 mi West 5.8 mph - N/A   Clear
3:13 PM 39.2 °F 34.2 °F 33.8 °F 81% 29.73 in 5.0 mi WNW 6.9 mph - N/A   Haze
3:33 PM 37.4 °F 31.4 °F 33.8 °F 87% 29.74 in 5.0 mi NW 8.1 mph - N/A   Haze
4:13 PM 35.6 °F 30.7 °F 33.8 °F 93% 29.75 in 5.0 mi NW 5.8 mph - N/A   Scattered Clouds
4:33 PM 35.6 °F 30.7 °F 32.0 °F 87% 29.76 in 4.0 mi NW 5.8 mph - N/A   Scattered Clouds
5:13 PM 33.8 °F 29.6 °F 32.0 °F 93% 29.77 in 5.0 mi NW 4.6 mph - N/A   Mostly Cloudy
5:52 PM 33.8 °F 27.0 °F 32.0 °F 93% 29.77 in 4.0 mi North 8.1 mph - N/A   Overcast
6:13 PM 33.8 °F 27.7 °F 32.0 °F 93% 29.78 in 4.0 mi NNW 6.9 mph - N/A   Overcast
6:33 PM 33.8 °F 27.7 °F 32.0 °F 93% 29.78 in 4.0 mi NNW 6.9 mph - N/A   Overcast
6:53 PM 33.8 °F 24.3 °F 32.0 °F 93% 29.79 in 4.0 mi North 13.8 mph - N/A   Overcast
7:13 PM 32.0 °F 23.6 °F 32.0 °F 100% 29.80 in 3.0 mi NNW 10.4 mph 13.8 mph N/A   Overcast
7:33 PM 32.0 °F 24.2 °F 32.0 °F 100% 29.81 in 3.0 mi North 9.2 mph - N/A   Overcast
7:52 PM 32.0 °F 24.2 °F 32.0 °F 100% 29.81 in 2.5 mi NNW 9.2 mph - N/A   Overcast
8:13 PM 32.0 °F 25.6 °F 32.0 °F 100% 29.83 in 2.0 mi NNW 6.9 mph - N/A   Overcast
8:33 PM 32.0 °F 26.4 °F 32.0 °F 100% 29.83 in 2.0 mi NNW 5.8 mph - N/A   Overcast
8:52 PM 32.0 °F 27.5 °F 32.0 °F 100% 29.83 in 1.5 mi NNW 4.6 mph - N/A   Overcast
9:13 PM 32.0 °F 25.6 °F 32.0 °F 100% 29.84 in 1.8 mi NNW 6.9 mph - N/A   Overcast
9:33 PM 32.0 °F 27.5 °F 32.0 °F 100% 29.85 in 1.2 mi NW 4.6 mph - N/A   Overcast
9:52 PM 32.0 °F 26.4 °F 32.0 °F 100% 29.85 in 0.5 mi NW 5.8 mph - N/A Fog Fog
10:13 PM 32.0 °F 24.8 °F 32.0 °F 100% 29.86 in 0.2 mi NW 8.1 mph - N/A Fog Fog
10:32 PM 32.0 °F 24.8 °F 32.0 °F 100% 29.86 in 0.2 mi WNW 8.1 mph - N/A Fog Fog
10:53 PM 32.0 °F 24.8 °F 32.0 °F 100% 29.86 in 0.2 mi NNW 8.1 mph - N/A Fog Fog
11:13 PM 32.0 °F 25.6 °F 32.0 °F 100% 29.85 in 0.2 mi NW 6.9 mph - N/A   Overcast
11:32 PM 32.0 °F 27.5 °F 32.0 °F 100% 29.85 in 0.2 mi NNW 4.6 mph - N/A Fog Fog
11:53 PM 32.0 °F - 32.0 °F 100% 29.84 in 0.5 mi Calm Calm - N/A   Overcast